This demonstration page uses our WeatherBlox Daily Observations layout. Learn more.

Left ArrowRight Arrow

Hourly Observations for June 27, 2021

Temp ( °F °C ) Dew Point ( °F °C ) Humidity (%) Winds ( mph kmh ) Pressure ( in mb ) Visibility ( mi km ) Precip ( " mm )
12:53 am 00:53 Cloudy 68 20 53 11.7 59 59 WSW 8 13 30.04 1017 10 16 N/A
1:53 am 01:53 Mostly Cloudy 65 18.3 53 11.7 66 66 SW 6 9 30.04 1017 10 16 N/A
2:53 am 02:53 Partly Cloudy 63 17.2 53 11.7 70 70 WSW 5 7 30.05 1018 10 16 N/A
3:53 am 03:53 Mostly Cloudy 63 17.2 53 11.7 70 70 SW 5 7 30.04 1017 10 16 N/A
4:53 am 04:53 Mostly Cloudy 61 16.1 53 11.7 75 75 WSW 6 9 30.06 1018 10 16 N/A
5:53 am 05:53 Mostly Sunny 61 16.1 53 11.7 75 75 SW 7 11 30.07 1018 10 16 N/A
6:53 am 06:53 Sunny 67 19.4 54 12.2 63 63 WNW 10 17 30.08 1019 10 16 N/A
7:53 am 07:53 Sunny 73 22.8 54 12.2 51 51 WNW 5 7 30.08 1019 10 16 N/A
8:53 am 08:53 Sunny 77 25 55 12.8 47 47 VRB 6 9 30.09 1019 10 16 N/A
9:53 am 09:53 Sunny 83 28.3 53 11.7 36 36 N 7 11 30.09 1019 10 16 N/A
10:53 am 10:53 Mostly Sunny 87 30.6 51 10.6 29 29 N 15 24 30.10 1019 10 16 N/A
11:53 am 11:53 Partly Cloudy 84 28.9 49 9.4 30 30 N 12 19 30.11 1020 10 16 N/A
12:53 pm 12:53 Mostly Sunny 88 31.1 47 8.3 24 24 NE 13 20 30.10 1019 10 16 N/A
1:53 pm 13:53 Partly Cloudy 88 31.1 47 8.3 24 24 NE 15 24 30.10 1019 10 16 N/A
2:53 pm 14:53 Mostly Sunny 89 31.7 47 8.3 23 23 NNE 14 22 30.09 1019 10 16 N/A
3:53 pm 15:53 Partly Cloudy 89 31.7 47 8.3 23 23 NNE 18 30 30.09 1019 10 16 N/A
4:53 pm 16:53 Mostly Sunny 88 31.1 47 8.3 24 24 N 17 28 30.10 1019 10 16 N/A
5:53 pm 17:53 Mostly Sunny 88 31.1 47 8.3 24 24 NE 17 28 30.10 1019 10 16 N/A
6:53 pm 18:53 Sunny 87 30.6 44 6.7 22 22 NNE 16 26 30.09 1019 10 16 N/A
7:53 pm 19:53 Sunny 84 28.9 44 6.7 25 25 NE 15 24 30.09 1019 10 16 N/A
8:53 pm 20:53 Sunny 81 27.2 47 8.3 30 30 NE 12 19 30.09 1019 10 16 N/A
9:53 pm 21:53 Clear 73 22.8 48 8.9 41 41 ENE 6 9 30.10 1019 10 16 N/A
10:53 pm 22:53 Clear 68 20 51 10.6 55 55 N N/A 30.11 1020 10 16 N/A
11:53 pm 23:53 Clear 66 18.9 48 8.9 52 52 N N/A 30.13 1020 10 16 N/A

Powered by AerisWeather